Regional Weather Roundup
Issued by NWS

Home | Current Version | Previous Version | Text Only | Print | Product List | Glossary On
Versions: 1 2 3 4 5 6 7 8 9 10 11 12 13 14 15 16 17 18 19 20 21 22 23 24 25 26 27
000
ASUS42 KTBW 262316
RWRFL
FLORIDA REGIONAL WEATHER ROUNDUP
NATIONAL WEATHER SERVICE TAMPA BAY RUSKIN FL
700 PM EDT FRI AUG 26 2016

NOTE: "FAIR" INDICATES FEW OR NO CLOUDS BELOW 12,000 FEET WITH NO
SIGNIFICANT WEATHER AND/OR OBSTRUCTIONS TO VISIBILITY.

FLZ001>010-012>015-112-114-115-270000-
PANHANDLE FLORIDA

CITY           SKY/WX    TMP DP  RH WIND       PRES   REMARKS
PENSACOLA      MOSUNNY   87  72  60 S8        29.97S
PENSACOLA NAS  MOSUNNY   87  72  60 S10       29.97S
MILTON NAS     MOSUNNY   85  75  72 SE3       29.98R
CRESTVIEW      SUNNY     90  65  43 VRB5      29.99S
DUKE FIELD     MOSUNNY   91  65  43 VRB5      29.98R
VALPARAISO     MOSUNNY   88  72  58 S7        29.97R HX  95
MARY ESTHER    SUNNY     87  72  59 S9        29.96S
PANAMA CITY    FAIR      86  74  67 S7        29.96S
TYNDALL AFB    SUNNY     88  68  51 S7        29.97S
APALACHICOLA   SUNNY     89  71  55 E6        29.96S HX  95

STATION/POSITION SKY/WX   TEMP    WIND        PRES    WAVE   SWELL
                          AIR SEA DIR/SP/G            HT/PER HT/PER
                          (F)     (DEG/KT/KT) (MB)    (FT/S) (FT/S)
30.1N   87.6W              85 86  130/ 12/ 14 1014.8F   2/ 5   2/ 6
29.2N   88.2W              82 86  180/  2/  4 1014.5S
28.8N   86.0W              85 86   90/ 12/ 14 1014.9R   3/ 6
PANAMA CITY BEAC           86 87              1015.4F
TOWER C                    86      70/ 10/ 11 1015.4R
28.5N   84.5W              86 86   50/ 12/ 14 1014.2R   3/ 5   2/13

$$
FLZ011-016>038-118-127-128-134-139-239-270000-
NORTH FLORIDA

CITY           SKY/WX    TMP DP  RH WIND       PRES   REMARKS
MARIANNA       MOSUNNY   90  66  45 SE5       29.97S
TALLAHASSEE    PTSUNNY   91  67  44 NE8       29.96F
PERRY          PTSUNNY   88  72  58 NE7       29.97S
CROSS CITY     CLOUDY    88  73  62 E6        29.96S HX  96
LAKE CITY      FAIR      86  68  54 NE8       29.98F
GAINESVILLE    PTSUNNY   88  69  53 NE13      29.98R
MAYPORT NAS    MOSUNNY   84  70  62 E14       30.00F
JACKSONVILLE   PTSUNNY   84  70  62 E15       30.00F
JAX NAS        PTSUNNY   87  68  52 E14       30.00S
FERNANDINA BEA FAIR      88  72  58 E10       30.00F
ST AUGUSTINE   SUNNY     85  71  63 NE13      30.00F
PALM COAST     PTSUNNY   82  73  74 E10       29.99R

STATION/POSITION SKY/WX   TEMP    WIND        PRES    WAVE   SWELL
                          AIR SEA DIR/SP/G            HT/PER HT/PER
                          (F)     (DEG/KT/KT) (MB)    (FT/S) (FT/S)
SHELL POINT                90     150/  5/  6 1013.2
KEATON BEACH               87      60/  7/ 10 1014.5R
CEDAR KEY                  87      50/ 11/ 13 1014.5R
FERNANDINA                 86 86              1016.4F
30.7N   81.3W                 85                N/A     4/ 8
MAYPORT                    83 84              1016.6F
31.4N   80.9W              83 85   70/ 14/ 16 1016.3S   4/ 5   2/ 8
ST AUGUSTINE               83 84   60/ 13/ 15 1016.5F

$$
FLZ040-043>046-052-053-057-058-063-144-270000-
INTERIOR CENTRAL FLORIDA

CITY           SKY/WX    TMP DP  RH WIND       PRES   REMARKS
OCALA          MOSUNNY   84  70  61 E10G17    29.98R
THE VILLAGES     N/A     84  75  74 S10       29.88R
LEESBURG       PTSUNNY   85  71  63 NE16G22   29.97R
SANFORD        PTSUNNY   85  71  63 E14G23    29.97R
ORLANDO EXEC   MOSUNNY   84  72  67 NE17      29.96R
ORLANDO INTL   PTSUNNY   84  73  69 E15       29.96R
KISSIMMEE      LGT RAIN  83  75  77 E14       29.97R
WINTER HAVEN   CLOUDY    82  75  79 NE5       29.97R
LAKELAND       PTSUNNY   84  75  74 NE14      29.95R THUNDER
BARTOW         FAIR      81  79  94 NE12      29.96R
OKEECHOBEE     CLOUDY    81  77  89 E5        29.92S

$$
FLZ041-047-054-059-064-141-147-270000-
EAST CENTRAL FLORIDA

CITY           SKY/WX    TMP DP  RH WIND       PRES   REMARKS
ORMOND BEACH   MOSUNNY   84  72  65 E12G17    29.98S
DAYTONA BEACH  PTSUNNY   85  73  67 E13       29.98S
DELAND         MOSUNNY   82  73  74 NE9       29.97S
NEW SMYRNA BEA MOSUNNY   84  73  70 E16G24    29.98F
JFK SPACE CTR  CLOUDY    84  73  69 E13       29.95S
TITUSVILLE     PTSUNNY   84  75  74 NE18G25   29.97
CAPE CANAVERAL CLOUDY    84  74  72 E10       29.94S
PATRICK AFB    DRIZZLE   81  79  94 E14G22    29.94S
MELBOURNE      CLOUDY    83  77  82 NE16G25   29.94S
VERO BEACH     PTCLDY    84  77  79 E10       29.93R
FT PIERCE      PTCLDY    83  78  85 E8        29.92S
STUART         PTCLDY    86  79  79 E8        29.93R HX  99

STATION/POSITION SKY/WX   TEMP    WIND        PRES    WAVE   SWELL
                          AIR SEA DIR/SP/G            HT/PER HT/PER
                          (F)     (DEG/KT/KT) (MB)    (FT/S) (FT/S)
28.5N   80.2W              83 81   60/ 16/ 19 1014.1F
TRIDENT PIER               84 85              1014.4F
28.4N   80.5W                 84                N/A     4/ 5
27.5N   80.2W                 84                N/A     3/ 8

$$
FLZ050-056-061-142-242-148-248-149-249-151-251-155-255-
160-260-270000-
WEST CENTRAL FLORIDA

CITY           SKY/WX    TMP DP  RH WIND       PRES   REMARKS
CRYSTAL RIVER  PTSUNNY   88  72  58 E10G17    29.95R
INVERNESS      CLOUDY    86  73  66 NE12G18   29.97R
BROOKSVILLE    PTSUNNY   87  73  62 NE12      29.94R
CLEARWATER AIR LGT RAIN  75  73  94 N8        29.96S
ST PETE CLEARW TSTM      79  76  90 NW10G17   29.95R
TAMPA INTL     CLOUDY    82  79  89 N5        29.94S
TAMPA EXEC     CLOUDY    84  77  79 NE7       29.94R
PLANT CITY     CLOUDY    84  77  79 E10       29.96R
MACDILL AFB    CLOUDY    81  81  99 E7        29.93R
PETER O KNIGHT CLOUDY    82  81  94 CALM      29.93S HX  95
ST PETERSBURG  CLOUDY    81  74  79 NW8       29.92S
SARASOTA       TSTM      76  72  87 NE5       29.91F
VENICE         LGT RAIN  79  75  89 SE6G12    29.94R

STATION/POSITION SKY/WX   TEMP    WIND        PRES    WAVE   SWELL
                          AIR SEA DIR/SP/G            HT/PER HT/PER
                          (F)     (DEG/KT/KT) (MB)    (FT/S) (FT/S)
27.3N   84.2W                 87                N/A     3/ 5
CLEARWATER BEACH           83 88              1013.8R
MIDDLE TAMPA BAY                              1014.0R
VENICE                     79 85  110/  5/  7 1013.3R

$$
FLZ066-069-070-075>078-162-262-165-265-270000-
SOUTHWEST FLORIDA AND KEYS

CITY           SKY/WX    TMP DP  RH WIND       PRES   REMARKS
PUNTA GORDA    CLOUDY    84  76  76 N10       29.93R
FT MYERS       TSTM      74  73  97 S7        29.93R FOG
SOUTHWEST INTL TSTM      77  72  84 S5        29.92
NAPLES         TSTM      77  75  93 N8G17     29.93R
MARCO ISLAND   MOSUNNY   77  72  83 NE9       29.93R THUNDER
MARATHON       MOCLDY    88  77  69 E8        29.88R HX 100
KEY WEST NAS   PTSUNNY   87  77  72 E9        29.89R HX  99
KEY WEST INTL  MOSUNNY   87  79  76 E10       29.89R HX 101

STATION/POSITION SKY/WX   TEMP    WIND        PRES    WAVE   SWELL
                          AIR SEA DIR/SP/G            HT/PER HT/PER
                          (F)     (DEG/KT/KT) (MB)    (FT/S) (FT/S)
NAPLES                        88              1011.7R
26.0N   85.6W              81 86   30/ 12/ 14 1013.2F   3/ 6   2/ 6
DRY TORTUGAS               86      70/  7/  7 1012.4R
SAND KEY                   84     350/  8/ 10 1012.6R
LONG KEY                   86 90   90/ 13/ 14 1012.3R

$$
FLZ067-068-071>074-168-172>174-270000-
SOUTHEAST FLORIDA

CITY           SKY/WX    TMP DP  RH WIND       PRES   REMARKS
W PALM BEACH   CLOUDY    86  75  69 E15       29.92R HX  95
BOCA RATON     PTCLDY    84  79  84 E12       29.90F HX  96
FT LAUDER-EXEC PTCLDY    86  73  65 NE12      29.89F
FT LAUDERDALE  MOCLDY    86  76  71 E13       29.89S HX  96
POMPANO BEACH  MOCLDY    86  76  71 E12       29.90S HX  96
OPA LOCKA      PTCLDY    87  75  67 E12       29.90S HX  96
MIAMI          MOCLDY    85  76  74 SE9       29.90R
WEST KENDALL   PTCLDY    81  77  88 E9        29.90R
HOMESTEAD      MOCLDY    84  76  77 E7        29.89R

STATION/POSITION SKY/WX   TEMP    WIND        PRES    WAVE   SWELL
                          AIR SEA DIR/SP/G            HT/PER HT/PER
                          (F)     (DEG/KT/KT) (MB)    (FT/S) (FT/S)
PORT EVERGLADES            88      70/  6/ 11 1012.4R
VIRGINIA KEY               84 90              1012.7R
LAKE WORTH                 85 88              1012.7R
FOWEY ROCKS                84 87   70/  9/ 10 1012.9R
SETTLEMENT POINT           79     200/  3/  3 1013.9F

$$





USA.gov is the U.S. government's official web portal to all federal, state and local government web resources and services.